sat.trackr.live / text

‹ back to catalog

STARLINK-37912

NORAD 69698 · 2026-145X

PAYLOAD ACTIVE UNKNOWN

§ Identity

Operator
Country
US
Launch date
2026-06-25
Launch site
AFWTR
Launch vehicle
Mass (kg)
RCS (m²)

Purposes: comms

External: N2YO · Heavens-Above · Gunter

§ Orbital elements

Epoch: 2026-09-19T19:42:51.208128Z

Period
93.91 min
Inclination
97.2845°
Eccentricity
0.0002140
Mean motion
15.33455597 rev/d
Perigee alt
464.0 km
Apogee alt
467.0 km
Semi-major
6,843.6 km
B*
3.2945e-4
RAAN
109.5676°
Arg perigee
94.1860°
Mean anomaly
265.9628°
Rev number
1,344

§ Raw data

STARLINK-379121 69698U 26145X   26262.82142602  .00010580  00000+0  32945-3 0  99982 69698  97.2845 109.5676 0002140  94.1860 265.9628 15.33455597 13441

JSON: /api/v1/satellites/69698 · /tle

For live sub-satellite position, see the globe view (requires WebGL).

§ Visibility from observer

Set your observer location to see the next 7 days of passes ≥ 10°. The values pass through the URL so the page stays shareable.

No JS? Fill the form by hand. The geolocation button needs JavaScript.